QPF
0.00 0.00 0.01 0.01 0.01 0.01 0.01 0.01 0.01 0.00 0.00 0.00 0.00 0.01 0.01 0.01 0.01 0.01 0.01 0.02 0.02 0.03 0.02 0.01 0.01 0.01 0.02 0.02 0.02 0.03 0.02 0.01 0.01 0.01 0.01 0.01 0.00 0.01 0.01 0.01 0.01 0.01 0.01
0.00 0.01 0.01 0.01 0.01 0.01 0.01 0.01 0.00 0.00 0.01 0.01 0.01 0.01 0.01 0.02 0.02 0.02 0.03 0.03 0.02 0.02 0.02 0.02 0.02 0.02 0.02 0.02 0.02 0.02 0.02 0.01 0.01 0.02 0.02 0.01 0.01 0.01 0.01 0.01 0.01 0.01 0.01
0.00 0.01 0.01 0.01 0.00 0.00 0.00 0.00 0.01 0.01 0.01 0.01 0.01 0.02 0.03 0.03 0.03 0.03 0.02 0.02 0.01 0.01 0.01 0.02 0.02 0.01 0.02 0.02 0.03 0.02 0.03 0.03 0.02 0.02 0.02 0.03 0.02 0.01 0.01 0.00 0.01 0.01 0.01
0.00 0.00 0.01 0.01 0.01 0.01 0.00 0.00 0.00 0.01 0.01 0.01 0.01 0.02 0.02 0.03 0.02 0.02 0.02 0.01 0.01 0.02 0.01 0.01 0.01 0.01 0.02 0.02 0.02 0.02 0.03 0.03 0.02 0.01 0.01 0.02 0.02 0.02 0.02 0.01 0.01 0.01 0.01
0.00 0.00 0.00 0.01 0.01 0.02 0.01 0.01 0.00 0.00 0.00 0.01 0.02 0.02 0.01 0.02 0.02 0.01 0.02 0.02 0.01 0.01 0.01 0.01 0.01 0.01 0.02 0.03 0.02 0.01 0.02 0.02 0.02 0.02 0.01 0.01 0.01 0.01 0.02 0.02 0.02 0.01 0.01
0.00 0.00 0.00 0.00 0.01 0.01 0.02 0.02 0.01 0.01 0.00 0.01 0.01 0.02 0.02 0.01 0.01 0.02 0.02 0.01 0.01 0.01 0.01 0.01 0.01 0.02 0.02 0.01 0.02 0.02 0.02 0.02 0.02 0.03 0.02 0.01 0.01 0.01 0.01 0.01 0.02 0.02 0.02
0.00 0.00 0.00 0.00 0.00 0.01 0.01 0.01 0.01 0.01 0.01 0.01 0.01 0.02 0.02 0.02 0.01 0.02 0.02 0.01 0.01 0.01 0.01 0.00 0.01 0.01 0.02 0.01 0.01 0.02 0.02 0.02 0.02 0.02 0.02 0.03 0.02 0.02 0.01 0.01 0.02 0.01 0.02
0.00 0.00 0.00 0.00 0.00 0.00 0.00 0.00 0.01 0.02 0.01 0.01 0.02 0.03 0.02 0.03 0.02 0.03 0.02 0.01 0.01 0.01 0.00 0.00 0.00 0.01 0.01 0.01 0.01 0.02 0.02 0.02 0.02 0.02 0.02 0.03 0.03 0.04 0.03 0.02 0.02 0.02 0.02
0.00 0.00 0.00 0.00 0.00 0.00 0.00 0.00 0.01 0.01 0.01 0.01 0.02 0.03 0.03 0.04 0.03 0.02 0.03 0.02 0.01 0.01 0.01 0.00 0.01 0.01 0.01 0.02 0.02 0.02 0.02 0.02 0.02 0.02 0.02 0.02 0.02 0.04 0.04 0.03 0.03 0.03 0.02
0.00 0.00 0.00 0.00 0.00 0.00 0.00 0.01 0.01 0.01 0.01 0.02 0.03 0.04 0.05 0.04 0.04 0.04 0.02 0.02 0.02 0.02 0.02 0.01 0.01 0.01 0.01 0.02 0.02 0.01 0.01 0.01 0.02 0.02 0.02 0.02 0.02 0.03 0.03 0.03 0.03 0.03 0.03
0.00 0.00 0.00 0.00 0.00 0.00 0.00 0.00 0.01 0.01 0.01 0.02 0.02 0.04 0.05 0.05 0.05 0.05 0.03 0.02 0.02 0.02 0.02 0.02 0.01 0.01 0.01 0.01 0.01 0.01 0.01 0.01 0.01 0.01 0.02 0.02 0.02 0.02 0.02 0.03 0.03 0.03 0.04
0.00 0.00 0.00 0.00 0.00 0.00 0.01 0.01 0.01 0.02 0.02 0.03 0.03 0.04 0.04 0.04 0.04 0.05 0.03 0.03 0.02 0.02 0.02 0.02 0.01 0.01 0.01 0.01 0.01 0.01 0.01 0.01 0.01 0.01 0.01 0.01 0.01 0.02 0.03 0.03 0.02 0.03 0.04
0.00 0.00 0.00 0.00 0.00 0.01 0.01 0.02 0.02 0.01 0.02 0.03 0.03 0.03 0.03 0.03 0.03 0.03 0.03 0.02 0.02 0.02 0.02 0.02 0.01 0.02 0.01 0.01 0.01 0.01 0.01 0.00 0.01 0.01 0.01 0.01 0.02 0.02 0.02 0.02 0.02 0.02 0.03
0.01 0.01 0.01 0.00 0.01 0.01 0.01 0.02 0.03 0.03 0.03 0.02 0.03 0.03 0.02 0.02 0.02 0.02 0.02 0.03 0.03 0.02 0.02 0.02 0.01 0.01 0.02 0.02 0.01 0.01 0.01 0.01 0.01 0.01 0.01 0.01 0.01 0.01 0.01 0.01 0.02 0.02 0.03
0.00 0.01 0.01 0.01 0.01 0.01 0.02 0.02 0.03 0.03 0.04 0.03 0.04 0.04 0.03 0.02 0.01 0.01 0.01 0.02 0.02 0.02 0.02 0.02 0.01 0.02 0.02 0.03 0.02 0.02 0.02 0.02 0.02 0.01 0.01 0.01 0.02 0.02 0.02 0.01 0.02 0.01 0.02
0.00 0.00 0.01 0.01 0.00 0.01 0.01 0.02 0.03 0.04 0.04 0.03 0.04 0.04 0.04 0.03 0.02 0.01 0.02 0.02 0.02 0.02 0.02 0.02 0.02 0.02 0.03 0.04 0.02 0.01 0.02 0.03 0.03 0.03 0.02 0.02 0.02 0.03 0.02 0.02 0.03 0.02 0.02
0.01 0.01 0.01 0.01 0.01 0.01 0.01 0.02 0.02 0.03 0.04 0.05 0.05 0.05 0.05 0.03 0.03 0.02 0.02 0.02 0.03 0.03 0.02 0.03 0.02 0.02 0.02 0.03 0.03 0.02 0.01 0.02 0.03 0.03 0.03 0.03 0.03 0.03 0.02 0.02 0.03 0.02 0.02
0.01 0.01 0.01 0.01 0.01 0.01 0.01 0.02 0.02 0.03 0.04 0.05 0.06 0.07 0.07 0.05 0.04 0.03 0.02 0.02 0.02 0.01 0.01 0.01 0.01 0.01 0.02 0.02 0.01 0.01 0.01 0.01 0.02 0.02 0.02 0.04 0.04 0.03 0.02 0.02 0.02 0.02 0.02
0.01 0.01 0.01 0.01 0.01 0.01 0.01 0.01 0.02 0.03 0.04 0.05 0.06 0.07 0.08 0.07 0.06 0.05 0.03 0.02 0.01 0.01 0.01 0.01 0.01 0.01 0.01 0.02 0.01 0.01 0.01 0.01 0.01 0.01 0.01 0.02 0.03 0.03 0.02 0.02 0.02 0.02 0.03
0.00 0.00 0.00 0.00 0.00 0.01 0.01 0.01 0.02 0.02 0.03 0.03 0.04 0.05 0.06 0.07 0.06 0.06 0.04 0.02 0.01 0.01 0.01 0.01 0.00 0.00 0.01 0.01 0.01 0.01 0.01 0.00 0.01 0.01 0.02 0.03 0.03 0.02 0.02 0.01 0.01 0.01 0.02
0.00 0.00 0.00 0.00 0.00 0.01 0.01 0.01 0.02 0.02 0.02 0.02 0.03 0.04 0.04 0.05 0.05 0.06 0.05 0.02 0.01 0.01 0.01 0.01 0.00 0.01 0.01 0.01 0.01 0.01 0.01 0.01 0.01 0.01 0.02 0.03 0.04 0.03 0.02 0.02 0.01 0.01 0.01
0.00 0.00 0.00 0.00 0.00 0.01 0.01 0.01 0.02 0.01 0.01 0.02 0.02 0.03 0.04 0.04 0.05 0.06 0.05 0.02 0.01 0.01 0.01 0.00 0.00 0.00 0.01 0.01 0.01 0.01 0.02 0.02 0.01 0.01 0.01 0.02 0.03 0.03 0.02 0.02 0.02 0.02 0.02
0.00 0.00 0.00 0.00 0.01 0.01 0.01 0.02 0.02 0.01 0.01 0.01 0.01 0.02 0.02 0.02 0.03 0.05 0.05 0.03 0.02 0.01 0.01 0.01 0.00 0.00 0.00 0.00 0.00 0.01 0.01 0.01 0.01 0.01 0.02 0.02 0.03 0.02 0.02 0.02 0.02 0.02 0.02
0.00 0.00 0.00 0.00 0.00 0.00 0.01 0.02 0.01 0.01 0.01 0.01 0.01 0.02 0.03 0.02 0.02 0.03 0.04 0.03 0.03 0.02 0.01 0.01 0.00 0.00 0.01 0.01 0.01 0.00 0.00 0.00 0.00 0.01 0.01 0.01 0.02 0.02 0.02 0.02 0.02 0.01 0.01
0.00 0.00 0.00 0.00 0.00 0.00 0.01 0.01 0.01 0.00 0.00 0.00 0.00 0.01 0.03 0.02 0.02 0.03 0.03 0.04 0.03 0.03 0.02 0.01 0.01 0.01 0.01 0.02 0.02 0.01 0.01 0.01 0.01 0.01 0.01 0.01 0.01 0.01 0.01 0.01 0.01 0.01 0.01
0.00 0.00 0.00 0.00 0.00 0.01 0.01 0.00 0.00 0.00 0.00 0.00 0.00 0.01 0.02 0.03 0.03 0.02 0.01 0.02 0.03 0.04 0.05 0.05 0.03 0.02 0.02 0.02 0.02 0.02 0.02 0.01 0.02 0.02 0.01 0.01 0.02 0.02 0.02 0.01 0.01 0.01 0.01
MSLP
1014.67 1015.06 1015.43 1015.76 1016.06 1016.34 1016.63 1016.93 1017.26 1017.63 1018.01 1018.39 1018.74 1019.05 1019.30 1019.49 1019.64 1019.77 1019.89 1020.02 1020.17 1020.34 1020.54 1020.76 1020.99 1021.23 1021.49 1021.76 1022.03 1022.30 1022.57 1022.81 1023.01 1023.17 1023.26 1023.30 1023.30 1023.27 1023.25 1023.24 1023.27 1023.35 1023.47
1014.38 1014.85 1015.27 1015.63 1015.93 1016.21 1016.48 1016.77 1017.12 1017.51 1017.94 1018.38 1018.81 1019.18 1019.49 1019.73 1019.91 1020.05 1020.18 1020.33 1020.50 1020.70 1020.92 1021.16 1021.41 1021.65 1021.89 1022.11 1022.32 1022.53 1022.72 1022.90 1023.05 1023.16 1023.24 1023.27 1023.27 1023.24 1023.21 1023.20 1023.23 1023.30 1023.43
1013.94 1014.50 1015.00 1015.41 1015.74 1016.02 1016.30 1016.60 1016.96 1017.38 1017.86 1018.35 1018.83 1019.26 1019.62 1019.90 1020.11 1020.28 1020.43 1020.60 1020.78 1021.00 1021.25 1021.51 1021.76 1021.99 1022.19 1022.36 1022.50 1022.62 1022.73 1022.83 1022.92 1023.01 1023.07 1023.11 1023.12 1023.12 1023.11 1023.12 1023.15 1023.23 1023.36
1013.34 1014.00 1014.59 1015.08 1015.47 1015.79 1016.09 1016.41 1016.80 1017.25 1017.76 1018.30 1018.83 1019.30 1019.70 1020.02 1020.25 1020.44 1020.61 1020.79 1020.99 1021.23 1021.49 1021.76 1022.01 1022.22 1022.38 1022.49 1022.56 1022.61 1022.64 1022.69 1022.74 1022.81 1022.87 1022.94 1022.99 1023.02 1023.04 1023.07 1023.11 1023.19 1023.31
1012.61 1013.38 1014.06 1014.64 1015.11 1015.49 1015.84 1016.20 1016.61 1017.10 1017.64 1018.21 1018.78 1019.28 1019.71 1020.05 1020.31 1020.51 1020.70 1020.88 1021.10 1021.35 1021.62 1021.89 1022.14 1022.33 1022.46 1022.53 1022.55 1022.55 1022.54 1022.55 1022.59 1022.66 1022.75 1022.85 1022.94 1023.02 1023.08 1023.12 1023.16 1023.23 1023.33
1011.80 1012.65 1013.44 1014.11 1014.67 1015.13 1015.54 1015.95 1016.41 1016.92 1017.49 1018.09 1018.67 1019.20 1019.65 1020.01 1020.28 1020.49 1020.68 1020.88 1021.10 1021.35 1021.63 1021.90 1022.14 1022.33 1022.45 1022.51 1022.51 1022.49 1022.47 1022.48 1022.54 1022.64 1022.77 1022.91 1023.05 1023.16 1023.24 1023.29 1023.32 1023.35 1023.41
1010.95 1011.87 1012.74 1013.52 1014.17 1014.71 1015.19 1015.66 1016.16 1016.70 1017.29 1017.91 1018.50 1019.05 1019.51 1019.88 1020.16 1020.38 1020.58 1020.77 1021.00 1021.25 1021.53 1021.81 1022.05 1022.25 1022.38 1022.45 1022.47 1022.47 1022.48 1022.53 1022.62 1022.76 1022.94 1023.13 1023.30 1023.44 1023.53 1023.56 1023.57 1023.55 1023.55
1010.13 1011.09 1012.03 1012.88 1013.61 1014.24 1014.80 1015.32 1015.86 1016.43 1017.04 1017.67 1018.27 1018.82 1019.29 1019.67 1019.97 1020.20 1020.40 1020.60 1020.82 1021.08 1021.36 1021.65 1021.91 1022.13 1022.29 1022.40 1022.46 1022.51 1022.57 1022.67 1022.81 1023.00 1023.22 1023.45 1023.65 1023.80 1023.88 1023.90 1023.86 1023.80 1023.73
1009.39 1010.36 1011.33 1012.23 1013.03 1013.73 1014.35 1014.93 1015.50 1016.10 1016.73 1017.36 1017.98 1018.54 1019.02 1019.41 1019.72 1019.96 1020.17 1020.39 1020.62 1020.88 1021.17 1021.47 1021.76 1022.01 1022.22 1022.38 1022.50 1022.61 1022.73 1022.88 1023.08 1023.31 1023.56 1023.81 1024.02 1024.17 1024.24 1024.24 1024.17 1024.06 1023.95
1008.76 1009.71 1010.68 1011.61 1012.45 1013.19 1013.85 1014.47 1015.08 1015.71 1016.35 1017.00 1017.62 1018.20 1018.70 1019.11 1019.44 1019.71 1019.94 1020.17 1020.42 1020.70 1021.00 1021.32 1021.63 1021.92 1022.18 1022.39 1022.57 1022.74 1022.92 1023.12 1023.35 1023.61 1023.88 1024.13 1024.34 1024.48 1024.55 1024.53 1024.45 1024.33 1024.20
1008.28 1009.19 1010.13 1011.04 1011.88 1012.63 1013.32 1013.97 1014.60 1015.25 1015.91 1016.58 1017.22 1017.82 1018.34 1018.78 1019.15 1019.45 1019.72 1019.98 1020.25 1020.55 1020.88 1021.22 1021.56 1021.89 1022.18 1022.44 1022.67 1022.89 1023.11 1023.34 1023.59 1023.85 1024.12 1024.36 1024.57 1024.71 1024.77 1024.76 1024.69 1024.58 1024.47
1007.99 1008.82 1009.69 1010.54 1011.34 1012.08 1012.76 1013.41 1014.06 1014.73 1015.41 1016.10 1016.77 1017.40 1017.96 1018.44 1018.85 1019.20 1019.51 1019.81 1020.12 1020.45 1020.81 1021.18 1021.55 1021.90 1022.23 1022.53 1022.79 1023.04 1023.27 1023.51 1023.76 1024.02 1024.27 1024.50 1024.70 1024.84 1024.92 1024.94 1024.91 1024.85 1024.77
1007.91 1008.62 1009.38 1010.13 1010.85 1011.53 1012.17 1012.82 1013.47 1014.15 1014.86 1015.57 1016.28 1016.94 1017.55 1018.08 1018.55 1018.95 1019.31 1019.66 1020.02 1020.38 1020.77 1021.17 1021.57 1021.96 1022.31 1022.63 1022.91 1023.17 1023.41 1023.64 1023.88 1024.11 1024.35 1024.57 1024.77 1024.92 1025.03 1025.10 1025.13 1025.13 1025.12
1008.02 1008.58 1009.19 1009.80 1010.40 1010.99 1011.58 1012.19 1012.83 1013.52 1014.25 1014.99 1015.73 1016.44 1017.10 1017.69 1018.21 1018.68 1019.10 1019.50 1019.91 1020.32 1020.75 1021.18 1021.61 1022.01 1022.39 1022.72 1023.02 1023.28 1023.52 1023.74 1023.96 1024.18 1024.40 1024.62 1024.82 1025.00 1025.15 1025.27 1025.37 1025.45 1025.51
1008.29 1008.69 1009.11 1009.55 1010.00 1010.47 1010.97 1011.53 1012.15 1012.84 1013.58 1014.36 1015.14 1015.89 1016.60 1017.25 1017.83 1018.35 1018.84 1019.30 1019.75 1020.22 1020.68 1021.15 1021.61 1022.04 1022.44 1022.79 1023.10 1023.37 1023.60 1023.82 1024.04 1024.26 1024.47 1024.70 1024.92 1025.13 1025.32 1025.50 1025.66 1025.80 1025.93
1008.70 1008.89 1009.11 1009.36 1009.63 1009.97 1010.37 1010.86 1011.45 1012.13 1012.88 1013.68 1014.49 1015.29 1016.04 1016.74 1017.37 1017.95 1018.50 1019.02 1019.52 1020.03 1020.54 1021.05 1021.54 1022.00 1022.42 1022.80 1023.13 1023.41 1023.67 1023.90 1024.13 1024.36 1024.59 1024.83 1025.08 1025.32 1025.56 1025.79 1026.00 1026.19 1026.36
1009.15 1009.15 1009.16 1009.20 1009.30 1009.49 1009.78 1010.19 1010.74 1011.40 1012.15 1012.96 1013.80 1014.62 1015.42 1016.16 1016.84 1017.47 1018.06 1018.63 1019.19 1019.74 1020.30 1020.84 1021.37 1021.86 1022.32 1022.73 1023.09 1023.41 1023.70 1023.97 1024.23 1024.49 1024.76 1025.04 1025.32 1025.60 1025.87 1026.13 1026.36 1026.58 1026.77
1009.60 1009.41 1009.22 1009.07 1009.00 1009.04 1009.22 1009.56 1010.05 1010.68 1011.42 1012.24 1013.08 1013.93 1014.74 1015.52 1016.23 1016.90 1017.54 1018.15 1018.75 1019.34 1019.93 1020.51 1021.07 1021.60 1022.10 1022.55 1022.96 1023.33 1023.68 1024.00 1024.32 1024.64 1024.96 1025.29 1025.61 1025.92 1026.21 1026.49 1026.73 1026.94 1027.12
1009.99 1009.63 1009.28 1008.97 1008.75 1008.67 1008.75 1009.01 1009.44 1010.03 1010.74 1011.54 1012.38 1013.23 1014.05 1014.84 1015.57 1016.27 1016.93 1017.57 1018.20 1018.83 1019.45 1020.06 1020.66 1021.23 1021.77 1022.27 1022.73 1023.17 1023.58 1023.98 1024.37 1024.76 1025.15 1025.53 1025.90 1026.24 1026.55 1026.83 1027.07 1027.26 1027.41
1010.31 1009.83 1009.34 1008.91 1008.58 1008.40 1008.39 1008.57 1008.94 1009.48 1010.15 1010.91 1011.73 1012.56 1013.37 1014.15 1014.90 1015.60 1016.28 1016.94 1017.59 1018.24 1018.89 1019.52 1020.15 1020.75 1021.33 1021.88 1022.41 1022.91 1023.40 1023.88 1024.35 1024.81 1025.27 1025.71 1026.13 1026.50 1026.83 1027.11 1027.33 1027.50 1027.62
1010.57 1010.01 1009.45 1008.94 1008.53 1008.27 1008.19 1008.30 1008.61 1009.08 1009.69 1010.40 1011.17 1011.95 1012.74 1013.50 1014.23 1014.93 1015.61 1016.28 1016.95 1017.61 1018.27 1018.93 1019.58 1020.21 1020.83 1021.43 1022.01 1022.57 1023.13 1023.68 1024.23 1024.77 1025.30 1025.80 1026.26 1026.67 1027.02 1027.30 1027.51 1027.66 1027.75
1010.80 1010.21 1009.62 1009.08 1008.63 1008.32 1008.18 1008.23 1008.46 1008.86 1009.40 1010.03 1010.73 1011.45 1012.18 1012.91 1013.61 1014.29 1014.97 1015.63 1016.30 1016.97 1017.64 1018.31 1018.98 1019.64 1020.29 1020.92 1021.55 1022.17 1022.79 1023.40 1024.02 1024.62 1025.20 1025.76 1026.26 1026.71 1027.08 1027.37 1027.59 1027.73 1027.81
1011.04 1010.48 1009.90 1009.35 1008.89 1008.56 1008.37 1008.36 1008.52 1008.83 1009.28 1009.82 1010.42 1011.07 1011.73 1012.40 1013.05 1013.71 1014.36 1015.02 1015.69 1016.36 1017.03 1017.72 1018.40 1019.08 1019.75 1020.41 1021.07 1021.73 1022.39 1023.05 1023.71 1024.36 1024.98 1025.58 1026.12 1026.60 1027.00 1027.31 1027.54 1027.70 1027.80
1011.34 1010.82 1010.28 1009.77 1009.32 1008.97 1008.76 1008.69 1008.77 1008.99 1009.33 1009.76 1010.26 1010.81 1011.39 1011.98 1012.58 1013.20 1013.82 1014.46 1015.11 1015.78 1016.46 1017.15 1017.85 1018.54 1019.23 1019.91 1020.59 1021.28 1021.96 1022.64 1023.33 1024.00 1024.65 1025.26 1025.83 1026.33 1026.76 1027.10 1027.37 1027.56 1027.68
1011.68 1011.23 1010.76 1010.29 1009.87 1009.53 1009.29 1009.16 1009.17 1009.29 1009.52 1009.84 1010.22 1010.66 1011.14 1011.65 1012.19 1012.75 1013.34 1013.95 1014.59 1015.26 1015.94 1016.63 1017.34 1018.04 1018.74 1019.44 1020.13 1020.82 1021.51 1022.19 1022.88 1023.55 1024.20 1024.82 1025.40 1025.92 1026.37 1026.74 1027.05 1027.28 1027.46
1012.05 1011.68 1011.27 1010.87 1010.48 1010.15 1009.89 1009.72 1009.66 1009.69 1009.81 1010.01 1010.29 1010.61 1010.99 1011.41 1011.88 1012.38 1012.92 1013.50 1014.12 1014.77 1015.45 1016.15 1016.86 1017.57 1018.28 1018.98 1019.67 1020.36 1021.04 1021.71 1022.37 1023.02 1023.65 1024.26 1024.82 1025.35 1025.81 1026.22 1026.57 1026.86 1027.09
Thickness
5729 5728 5727 5726 5725 5724 5722 5720 5718 5717 5715 5712 5709 5706 5705 5704 5702 5701 5700 5699 5698 5697 5696 5695 5695 5693 5691 5690 5690 5688 5686 5686 5687 5687 5685 5686 5687 5687 5686 5686 5687 5687 5686
5724 5723 5723 5722 5721 5720 5718 5717 5715 5714 5712 5709 5708 5705 5703 5700 5698 5696 5695 5694 5694 5694 5693 5693 5692 5690 5687 5687 5686 5684 5683 5683 5685 5685 5683 5681 5681 5681 5683 5683 5683 5684 5683
5721 5720 5720 5718 5717 5716 5715 5714 5713 5711 5709 5707 5705 5703 5700 5698 5695 5692 5691 5691 5691 5691 5690 5690 5689 5688 5687 5685 5683 5683 5681 5680 5682 5684 5682 5679 5677 5676 5678 5680 5680 5680 5679
5718 5716 5715 5715 5714 5713 5713 5712 5711 5709 5707 5705 5703 5700 5695 5693 5693 5691 5689 5688 5688 5687 5687 5687 5687 5686 5685 5683 5683 5682 5681 5679 5679 5680 5680 5681 5679 5676 5673 5675 5677 5676 5676
5714 5712 5712 5711 5711 5710 5709 5708 5707 5706 5704 5702 5699 5697 5695 5693 5692 5689 5687 5686 5686 5685 5684 5684 5684 5684 5683 5682 5681 5680 5679 5679 5678 5678 5677 5676 5676 5678 5674 5670 5671 5673 5673
5711 5710 5709 5708 5707 5706 5704 5703 5702 5700 5699 5697 5697 5695 5692 5690 5688 5686 5684 5683 5683 5682 5682 5682 5682 5681 5681 5680 5679 5678 5677 5677 5676 5676 5676 5675 5674 5674 5673 5671 5669 5669 5670
5708 5706 5704 5703 5702 5701 5700 5699 5697 5695 5694 5693 5693 5693 5690 5688 5686 5684 5682 5681 5680 5680 5679 5679 5679 5679 5678 5677 5676 5676 5676 5676 5674 5674 5674 5674 5674 5674 5673 5671 5668 5667 5667
5705 5702 5700 5699 5698 5697 5696 5695 5693 5692 5690 5689 5689 5689 5688 5685 5684 5682 5681 5680 5679 5678 5677 5676 5676 5676 5675 5674 5673 5673 5673 5674 5673 5672 5671 5670 5671 5671 5670 5669 5666 5664 5664
5699 5697 5696 5695 5695 5694 5692 5692 5690 5689 5687 5685 5684 5684 5683 5682 5680 5679 5679 5677 5677 5675 5674 5673 5672 5672 5671 5671 5671 5670 5670 5671 5671 5671 5670 5669 5669 5668 5667 5667 5666 5664 5661
5695 5694 5692 5691 5691 5691 5689 5688 5687 5686 5683 5682 5681 5680 5679 5678 5676 5675 5674 5673 5673 5671 5670 5670 5670 5669 5668 5667 5667 5667 5667 5668 5667 5666 5666 5666 5666 5665 5664 5664 5663 5663 5662
5690 5689 5687 5686 5685 5685 5684 5683 5682 5681 5679 5678 5677 5675 5674 5673 5672 5670 5669 5669 5668 5668 5667 5666 5666 5666 5665 5664 5663 5663 5664 5664 5665 5664 5664 5662 5662 5661 5661 5660 5660 5660 5659
5686 5684 5682 5680 5679 5678 5677 5677 5677 5675 5674 5673 5672 5671 5669 5668 5667 5666 5665 5664 5664 5663 5663 5662 5662 5661 5661 5660 5660 5659 5659 5660 5660 5660 5660 5659 5658 5657 5657 5656 5656 5656 5656
5679 5678 5675 5674 5672 5671 5670 5670 5669 5669 5668 5667 5666 5665 5664 5663 5662 5661 5660 5660 5660 5659 5658 5658 5657 5657 5656 5656 5656 5655 5656 5656 5656 5656 5656 5656 5655 5654 5654 5653 5653 5652 5652
5673 5671 5669 5668 5666 5665 5664 5663 5662 5662 5661 5660 5659 5659 5658 5658 5657 5656 5655 5655 5654 5653 5653 5653 5652 5651 5651 5651 5651 5650 5650 5651 5651 5651 5651 5652 5651 5651 5651 5650 5650 5649 5647
5665 5664 5663 5662 5660 5659 5658 5656 5655 5655 5654 5653 5652 5652 5652 5651 5650 5649 5649 5648 5647 5647 5647 5646 5646 5645 5645 5645 5645 5645 5645 5645 5645 5645 5646 5646 5645 5644 5644 5645 5645 5644 5643
5659 5658 5657 5656 5654 5653 5651 5650 5649 5649 5648 5647 5646 5646 5645 5644 5643 5643 5642 5641 5640 5639 5639 5639 5639 5639 5638 5636 5635 5637 5639 5640 5640 5640 5640 5640 5639 5637 5636 5636 5636 5637 5639
5651 5651 5651 5650 5648 5647 5645 5643 5642 5642 5642 5641 5640 5639 5639 5638 5637 5637 5636 5634 5633 5632 5632 5632 5632 5632 5631 5629 5628 5629 5632 5634 5635 5635 5635 5635 5634 5633 5634 5632 5630 5630 5630
5644 5644 5643 5642 5642 5640 5638 5637 5636 5635 5635 5634 5634 5633 5633 5632 5631 5631 5629 5628 5628 5627 5626 5626 5627 5626 5625 5622 5621 5622 5626 5628 5629 5629 5630 5630 5630 5628 5628 5628 5628 5628 5627
5639 5637 5637 5635 5634 5633 5631 5629 5628 5628 5627 5627 5627 5627 5627 5626 5625 5624 5624 5623 5622 5621 5621 5621 5620 5621 5620 5616 5615 5615 5619 5621 5622 5623 5624 5624 5624 5621 5620 5622 5623 5622 5620
5631 5630 5629 5628 5626 5625 5624 5622 5621 5621 5620 5621 5621 5622 5621 5621 5620 5620 5619 5618 5616 5615 5614 5614 5615 5615 5614 5611 5609 5608 5613 5615 5616 5617 5617 5615 5615 5613 5612 5615 5616 5615 5614
5623 5622 5621 5619 5618 5618 5616 5615 5614 5614 5614 5614 5614 5615 5615 5614 5614 5613 5613 5611 5610 5609 5609 5608 5608 5608 5607 5605 5603 5602 5605 5607 5608 5609 5610 5610 5606 5605 5605 5606 5609 5608 5606
5615 5614 5613 5611 5611 5610 5609 5608 5607 5608 5607 5607 5607 5608 5608 5608 5607 5606 5605 5605 5604 5602 5602 5602 5601 5601 5600 5598 5596 5595 5596 5597 5600 5601 5602 5602 5598 5597 5597 5597 5598 5597 5596
5608 5607 5606 5604 5603 5603 5602 5602 5601 5601 5601 5600 5600 5601 5602 5602 5601 5600 5599 5598 5596 5596 5595 5595 5595 5594 5593 5592 5590 5588 5588 5588 5590 5592 5592 5590 5589 5589 5590 5589 5588 5588 5589
5600 5600 5599 5597 5597 5597 5595 5595 5595 5595 5595 5594 5595 5595 5596 5595 5595 5593 5592 5591 5590 5589 5588 5588 5588 5587 5586 5585 5584 5582 5581 5580 5581 5582 5581 5580 5579 5580 5580 5580 5580 5581 5582
5593 5593 5592 5591 5590 5590 5589 5588 5588 5588 5588 5589 5589 5589 5588 5588 5587 5586 5584 5583 5583 5582 5581 5581 5582 5580 5579 5578 5576 5575 5575 5574 5574 5573 5573 5573 5573 5572 5573 5573 5573 5572 5572
5587 5585 5584 5584 5584 5583 5581 5581 5581 5581 5582 5583 5582 5581 5580 5580 5579 5578 5576 5573 5572 5572 5571 5571 5571 5572 5570 5568 5566 5565 5564 5564 5563 5563 5565 5565 5565 5564 5564 5563 5562 5562 5561